Regional Weather Roundup
Issued by NWS

Home | Current Version | Previous Version | Text Only | Print | Product List | Glossary Off
Versions: 1 2 3 4 5 6 7 8 9 10 11 12 13 14 15 16 17 18 19 20 21 22 23 24 25 26 27 28 29 30 31 32 33 34 35 36 37 38 39 40 41 42 43 44 45 46 47 48 49 50

000
ASUS43 KBIS 270810
RWRND

NORTH DAKOTA REGIONAL WEATHER ROUNDUP
NATIONAL WEATHER SERVICE BISMARCK ND
300 AM CDT MON MAR 27 2017

NOTE: "FAIR" INDICATES FEW OR NO CLOUDS BELOW 12,000 FEET WITH NO
SIGNIFICANT WEATHER AND/OR OBSTRUCTIONS TO VISIBILITY.


NDZ001>003-009>011-017-270900-
NORTHWEST NORTH DAKOTA

CITY           SKY/WX    TMP DP  RH WIND       PRES   REMARKS
WILLISTON      CLOUDY    35  30  82 CALM      29.88S
MINOT          FAIR      33  32  96 NW5       29.88S FOG
MINOT AFB      CLEAR     30  30  97 W3        29.87S
$$

NDZ018>021-031>035-040>046-270900-
SOUTHWEST NORTH DAKOTA

CITY           SKY/WX    TMP DP  RH WIND       PRES   REMARKS
BISMARCK       FAIR      34  31  88 NE8       29.92F
DICKINSON      FAIR      35  30  82 SW3       29.86S
GARRISON         N/A     39  32  76 SE3       29.88S
HETTINGER ARPT CLEAR     35  32  88 CALM      29.91S
$$

NDZ004>008-012>016-024-026-027-054-270900-
NORTHEAST NORTH DAKOTA

CITY           SKY/WX    TMP DP  RH WIND       PRES   REMARKS
GRAND FORKS    CLOUDY    39  39 100 CALM      29.97R FOG
GRND FRKS AFB  CLOUDY    35  35 100 CALM      29.96F FOG
DEVILS LAKE    FOG       32  32 100 CALM      29.94R VSB 1/4
$$

NDZ022-023-025-028>030-036>039-047>053-270900-
SOUTHEAST NORTH DAKOTA

CITY           SKY/WX    TMP DP  RH WIND       PRES   REMARKS
FARGO          PTCLDY    34  33  96 CALM      29.96R
JAMESTOWN      FOG       32  32 100 CALM      29.92F VSB 1/2
$$




USA.gov is the U.S. government's official web portal to all federal, state and local government web resources and services.